QPF
0.00 0.00 0.00 0.00 0.00 0.00 0.01 0.01 0.00 0.01 0.01 0.01 0.01 0.03 0.03 0.04 0.03 0.01 0.02 0.04 0.05 0.06 0.06 0.04 0.04 0.04 0.03 0.03 0.03 0.04 0.04 0.03 0.03 0.04 0.04 0.05 0.04 0.04 0.05 0.05 0.08 0.12 0.12
0.00 0.00 0.00 0.00 0.00 0.00 0.00 0.00 0.00 0.00 0.01 0.01 0.01 0.02 0.02 0.05 0.02 0.01 0.01 0.02 0.04 0.05 0.06 0.06 0.06 0.05 0.04 0.03 0.03 0.04 0.05 0.05 0.04 0.04 0.05 0.05 0.05 0.07 0.08 0.07 0.07 0.06 0.08
0.00 0.00 0.00 0.00 0.00 0.00 0.00 0.00 0.00 0.00 0.00 0.00 0.01 0.01 0.02 0.02 0.02 0.01 0.01 0.01 0.01 0.02 0.03 0.05 0.06 0.05 0.04 0.03 0.05 0.06 0.06 0.06 0.04 0.07 0.06 0.04 0.04 0.05 0.08 0.07 0.06 0.06 0.06
0.00 0.00 0.00 0.00 0.00 0.00 0.01 0.01 0.00 0.01 0.00 0.00 0.01 0.02 0.02 0.01 0.01 0.01 0.02 0.02 0.02 0.01 0.02 0.03 0.05 0.05 0.04 0.05 0.08 0.08 0.06 0.05 0.05 0.13 0.13 0.08 0.06 0.04 0.04 0.04 0.04 0.06 0.08
0.00 0.00 0.00 0.00 0.00 0.00 0.01 0.01 0.01 0.01 0.01 0.01 0.02 0.02 0.02 0.02 0.01 0.01 0.02 0.02 0.02 0.02 0.02 0.02 0.03 0.03 0.03 0.05 0.10 0.12 0.08 0.06 0.08 0.20 0.28 0.16 0.10 0.06 0.04 0.04 0.05 0.06 0.06
0.00 0.00 0.00 0.00 0.00 0.00 0.00 0.01 0.01 0.01 0.02 0.02 0.01 0.01 0.02 0.01 0.01 0.01 0.02 0.02 0.04 0.05 0.03 0.03 0.02 0.02 0.02 0.03 0.07 0.11 0.07 0.06 0.09 0.20 0.31 0.22 0.15 0.08 0.06 0.05 0.06 0.05 0.05
0.00 0.00 0.00 0.00 0.00 0.00 0.00 0.00 0.00 0.00 0.01 0.02 0.01 0.01 0.01 0.01 0.01 0.02 0.02 0.02 0.05 0.07 0.04 0.03 0.03 0.02 0.02 0.02 0.05 0.09 0.08 0.06 0.08 0.12 0.22 0.24 0.17 0.09 0.07 0.07 0.07 0.05 0.05
0.00 0.00 0.00 0.00 0.00 0.00 0.00 0.00 0.00 0.00 0.01 0.01 0.01 0.00 0.01 0.01 0.01 0.01 0.01 0.02 0.03 0.04 0.04 0.04 0.04 0.03 0.02 0.02 0.03 0.07 0.10 0.08 0.09 0.10 0.12 0.13 0.12 0.08 0.07 0.08 0.09 0.08 0.09
0.00 0.00 0.00 0.00 0.00 0.00 0.00 0.00 0.00 0.00 0.00 0.00 0.00 0.00 0.00 0.01 0.01 0.00 0.01 0.02 0.03 0.03 0.04 0.03 0.03 0.03 0.03 0.02 0.02 0.03 0.08 0.10 0.10 0.10 0.09 0.08 0.08 0.08 0.08 0.08 0.08 0.08 0.08
0.00 0.00 0.00 0.00 0.00 0.00 0.00 0.00 0.00 0.00 0.00 0.00 0.01 0.00 0.00 0.00 0.00 0.01 0.01 0.01 0.01 0.02 0.04 0.04 0.04 0.04 0.05 0.03 0.02 0.04 0.05 0.06 0.07 0.08 0.08 0.09 0.09 0.10 0.09 0.08 0.08 0.07 0.08
0.00 0.00 0.00 0.00 0.00 0.00 0.00 0.00 0.00 0.00 0.00 0.00 0.00 0.00 0.00 0.00 0.00 0.01 0.00 0.00 0.01 0.02 0.03 0.04 0.04 0.04 0.04 0.03 0.03 0.04 0.04 0.03 0.04 0.06 0.07 0.10 0.13 0.12 0.11 0.10 0.11 0.11 0.11
0.02 0.01 0.00 0.00 0.00 0.00 0.00 0.00 0.00 0.00 0.00 0.00 0.00 0.00 0.00 0.00 0.00 0.00 0.00 0.00 0.01 0.01 0.02 0.03 0.04 0.05 0.04 0.03 0.03 0.03 0.03 0.02 0.03 0.04 0.05 0.07 0.10 0.09 0.10 0.12 0.14 0.13 0.11
0.02 0.02 0.01 0.00 0.00 0.00 0.00 0.00 0.00 0.00 0.00 0.00 0.00 0.00 0.00 0.00 0.00 0.00 0.00 0.00 0.00 0.00 0.01 0.02 0.05 0.05 0.03 0.02 0.01 0.01 0.01 0.02 0.02 0.02 0.03 0.03 0.03 0.03 0.04 0.08 0.11 0.11 0.10
0.01 0.02 0.02 0.01 0.00 0.00 0.00 0.00 0.00 0.00 0.00 0.00 0.00 0.00 0.01 0.00 0.00 0.00 0.00 0.00 0.00 0.00 0.01 0.02 0.03 0.03 0.02 0.01 0.00 0.01 0.01 0.01 0.01 0.01 0.01 0.01 0.01 0.01 0.02 0.03 0.04 0.06 0.09
0.01 0.01 0.01 0.01 0.00 0.00 0.00 0.00 0.00 0.00 0.00 0.00 0.00 0.00 0.00 0.00 0.00 0.00 0.00 0.00 0.00 0.00 0.00 0.01 0.02 0.03 0.01 0.00 0.01 0.01 0.01 0.01 0.00 0.00 0.00 0.00 0.00 0.00 0.01 0.02 0.02 0.03 0.06
0.01 0.01 0.01 0.01 0.01 0.01 0.00 0.00 0.00 0.00 0.00 0.00 0.00 0.00 0.00 0.01 0.00 0.00 0.00 0.00 0.00 0.00 0.00 0.01 0.02 0.02 0.01 0.01 0.01 0.02 0.01 0.01 0.00 0.00 0.00 0.00 0.00 0.01 0.01 0.01 0.01 0.01 0.02
0.01 0.01 0.01 0.01 0.01 0.01 0.01 0.00 0.00 0.00 0.00 0.00 0.00 0.00 0.00 0.00 0.00 0.00 0.00 0.00 0.00 0.00 0.00 0.00 0.01 0.01 0.01 0.01 0.01 0.01 0.01 0.00 0.00 0.00 0.00 0.00 0.00 0.00 0.00 0.01 0.01 0.01 0.01
0.01 0.01 0.01 0.02 0.02 0.01 0.01 0.00 0.00 0.00 0.00 0.00 0.00 0.00 0.00 0.00 0.00 0.00 0.00 0.00 0.00 0.00 0.00 0.01 0.01 0.00 0.01 0.01 0.00 0.01 0.01 0.01 0.01 0.01 0.01 0.01 0.01 0.00 0.00 0.00 0.00 0.00 0.00
0.00 0.00 0.01 0.02 0.02 0.02 0.01 0.00 0.00 0.00 0.00 0.00 0.00 0.00 0.00 0.00 0.00 0.00 0.00 0.00 0.00 0.00 0.00 0.00 0.00 0.00 0.00 0.00 0.00 0.00 0.01 0.01 0.01 0.01 0.01 0.02 0.01 0.01 0.00 0.00 0.00 0.00 0.00
0.00 0.00 0.00 0.00 0.01 0.01 0.01 0.00 0.00 0.00 0.00 0.00 0.00 0.00 0.00 0.00 0.00 0.00 0.00 0.00 0.00 0.00 0.00 0.00 0.00 0.00 0.00 0.00 0.00 0.00 0.00 0.00 0.01 0.01 0.01 0.02 0.01 0.01 0.01 0.00 0.00 0.00 0.00
0.00 0.01 0.01 0.00 0.00 0.00 0.00 0.00 0.00 0.00 0.00 0.00 0.00 0.00 0.00 0.00 0.00 0.00 0.00 0.00 0.00 0.00 0.00 0.00 0.00 0.00 0.00 0.00 0.00 0.00 0.00 0.00 0.00 0.00 0.00 0.00 0.00 0.00 0.00 0.00 0.00 0.00 0.01
0.00 0.01 0.02 0.02 0.02 0.01 0.01 0.01 0.00 0.00 0.00 0.00 0.00 0.00 0.00 0.00 0.00 0.00 0.00 0.00 0.00 0.00 0.00 0.00 0.00 0.00 0.00 0.00 0.00 0.00 0.00 0.00 0.00 0.00 0.00 0.00 0.00 0.00 0.00 0.00 0.00 0.00 0.00
0.01 0.02 0.02 0.02 0.02 0.01 0.01 0.01 0.01 0.00 0.00 0.00 0.01 0.01 0.00 0.00 0.00 0.00 0.00 0.00 0.00 0.00 0.00 0.00 0.00 0.00 0.00 0.00 0.00 0.00 0.00 0.00 0.00 0.00 0.00 0.00 0.00 0.00 0.00 0.00 0.00 0.00 0.00
0.02 0.03 0.02 0.02 0.01 0.01 0.01 0.01 0.02 0.01 0.01 0.01 0.01 0.01 0.01 0.01 0.00 0.00 0.00 0.00 0.00 0.00 0.00 0.00 0.00 0.00 0.00 0.00 0.00 0.00 0.00 0.00 0.00 0.00 0.00 0.00 0.00 0.00 0.00 0.00 0.00 0.00 0.00
0.01 0.01 0.01 0.01 0.01 0.02 0.02 0.02 0.02 0.01 0.01 0.02 0.01 0.01 0.01 0.01 0.00 0.00 0.00 0.00 0.00 0.00 0.00 0.00 0.00 0.00 0.00 0.00 0.00 0.00 0.00 0.00 0.00 0.00 0.00 0.00 0.00 0.00 0.00 0.00 0.00 0.00 0.00
0.00 0.00 0.00 0.00 0.01 0.01 0.01 0.01 0.01 0.01 0.01 0.03 0.02 0.01 0.01 0.00 0.00 0.00 0.00 0.00 0.00 0.00 0.00 0.00 0.00 0.00 0.00 0.00 0.00 0.00 0.00 0.00 0.00 0.00 0.00 0.00 0.00 0.00 0.00 0.00 0.00 0.00 0.00
MSLP
1018.06 1017.89 1017.65 1017.36 1017.04 1016.73 1016.45 1016.22 1016.04 1015.93 1015.86 1015.83 1015.82 1015.83 1015.85 1015.89 1015.95 1016.03 1016.15 1016.29 1016.46 1016.62 1016.77 1016.91 1017.02 1017.10 1017.16 1017.21 1017.26 1017.31 1017.39 1017.48 1017.60 1017.74 1017.90 1018.04 1018.18 1018.29 1018.38 1018.41 1018.42 1018.39 1018.34
1018.41 1018.23 1017.99 1017.69 1017.37 1017.05 1016.76 1016.52 1016.35 1016.24 1016.19 1016.17 1016.19 1016.22 1016.26 1016.30 1016.35 1016.41 1016.49 1016.59 1016.70 1016.83 1016.97 1017.10 1017.22 1017.33 1017.41 1017.48 1017.54 1017.59 1017.65 1017.72 1017.80 1017.90 1018.01 1018.13 1018.23 1018.32 1018.38 1018.40 1018.39 1018.34 1018.29
1018.78 1018.60 1018.36 1018.08 1017.77 1017.47 1017.18 1016.95 1016.78 1016.68 1016.64 1016.65 1016.69 1016.75 1016.80 1016.84 1016.88 1016.91 1016.94 1016.98 1017.03 1017.11 1017.21 1017.32 1017.45 1017.56 1017.66 1017.75 1017.82 1017.87 1017.91 1017.95 1017.99 1018.04 1018.11 1018.18 1018.24 1018.30 1018.34 1018.34 1018.33 1018.28 1018.23
1019.16 1018.97 1018.76 1018.50 1018.22 1017.94 1017.67 1017.46 1017.29 1017.20 1017.17 1017.20 1017.27 1017.35 1017.42 1017.48 1017.51 1017.51 1017.49 1017.47 1017.47 1017.49 1017.53 1017.62 1017.72 1017.84 1017.96 1018.06 1018.14 1018.19 1018.21 1018.22 1018.22 1018.22 1018.23 1018.24 1018.27 1018.29 1018.30 1018.30 1018.28 1018.24 1018.19
1019.53 1019.35 1019.15 1018.93 1018.69 1018.44 1018.20 1017.99 1017.84 1017.75 1017.73 1017.77 1017.86 1017.97 1018.08 1018.16 1018.21 1018.20 1018.16 1018.10 1018.04 1018.00 1018.00 1018.04 1018.12 1018.22 1018.34 1018.45 1018.53 1018.58 1018.59 1018.56 1018.52 1018.47 1018.42 1018.38 1018.35 1018.34 1018.33 1018.32 1018.29 1018.26 1018.21
1019.90 1019.73 1019.55 1019.36 1019.16 1018.95 1018.73 1018.54 1018.39 1018.30 1018.28 1018.34 1018.45 1018.60 1018.75 1018.88 1018.96 1018.97 1018.94 1018.86 1018.77 1018.68 1018.63 1018.63 1018.67 1018.76 1018.86 1018.97 1019.04 1019.07 1019.06 1019.00 1018.91 1018.81 1018.71 1018.62 1018.55 1018.50 1018.46 1018.43 1018.39 1018.35 1018.28
1020.28 1020.10 1019.95 1019.80 1019.64 1019.45 1019.26 1019.08 1018.93 1018.84 1018.82 1018.89 1019.03 1019.22 1019.43 1019.62 1019.76 1019.82 1019.82 1019.75 1019.65 1019.54 1019.45 1019.41 1019.41 1019.46 1019.53 1019.61 1019.66 1019.67 1019.63 1019.54 1019.41 1019.27 1019.12 1018.98 1018.87 1018.78 1018.71 1018.66 1018.59 1018.53 1018.43
1020.67 1020.51 1020.37 1020.25 1020.12 1019.97 1019.80 1019.63 1019.48 1019.38 1019.37 1019.45 1019.62 1019.85 1020.12 1020.39 1020.60 1020.73 1020.78 1020.74 1020.66 1020.54 1020.42 1020.34 1020.30 1020.30 1020.33 1020.36 1020.37 1020.35 1020.27 1020.15 1019.98 1019.80 1019.61 1019.45 1019.30 1019.18 1019.08 1018.99 1018.90 1018.79 1018.66
1021.11 1020.95 1020.84 1020.74 1020.64 1020.52 1020.37 1020.21 1020.06 1019.97 1019.95 1020.04 1020.24 1020.51 1020.84 1021.17 1021.45 1021.66 1021.77 1021.78 1021.72 1021.60 1021.47 1021.36 1021.27 1021.22 1021.19 1021.16 1021.12 1021.05 1020.93 1020.77 1020.58 1020.37 1020.16 1019.97 1019.80 1019.66 1019.53 1019.41 1019.28 1019.12 1018.95
1021.61 1021.47 1021.37 1021.30 1021.23 1021.13 1021.00 1020.85 1020.71 1020.61 1020.60 1020.70 1020.91 1021.21 1021.57 1021.95 1022.29 1022.55 1022.72 1022.78 1022.74 1022.64 1022.50 1022.36 1022.23 1022.12 1022.03 1021.95 1021.84 1021.72 1021.56 1021.36 1021.15 1020.93 1020.72 1020.52 1020.34 1020.19 1020.04 1019.89 1019.72 1019.52 1019.28
1022.18 1022.06 1021.98 1021.94 1021.89 1021.82 1021.71 1021.57 1021.44 1021.35 1021.34 1021.43 1021.63 1021.93 1022.30 1022.70 1023.07 1023.36 1023.56 1023.66 1023.65 1023.56 1023.42 1023.27 1023.11 1022.95 1022.81 1022.66 1022.50 1022.32 1022.12 1021.90 1021.66 1021.44 1021.23 1021.05 1020.88 1020.72 1020.57 1020.39 1020.18 1019.93 1019.64
1022.82 1022.72 1022.67 1022.65 1022.62 1022.57 1022.49 1022.37 1022.25 1022.16 1022.15 1022.22 1022.41 1022.68 1023.03 1023.41 1023.76 1024.06 1024.27 1024.38 1024.39 1024.31 1024.19 1024.03 1023.85 1023.67 1023.48 1023.28 1023.07 1022.84 1022.60 1022.36 1022.12 1021.90 1021.70 1021.53 1021.39 1021.24 1021.08 1020.89 1020.65 1020.35 1020.02
1023.49 1023.43 1023.41 1023.41 1023.40 1023.38 1023.31 1023.22 1023.12 1023.04 1023.01 1023.07 1023.21 1023.45 1023.74 1024.06 1024.38 1024.64 1024.83 1024.94 1024.96 1024.91 1024.80 1024.66 1024.48 1024.29 1024.07 1023.84 1023.59 1023.32 1023.05 1022.78 1022.53 1022.31 1022.13 1021.98 1021.85 1021.72 1021.57 1021.36 1021.10 1020.77 1020.38
1024.16 1024.13 1024.14 1024.16 1024.18 1024.18 1024.15 1024.08 1024.01 1023.93 1023.91 1023.94 1024.04 1024.21 1024.44 1024.69 1024.94 1025.15 1025.31 1025.40 1025.42 1025.39 1025.31 1025.19 1025.04 1024.85 1024.63 1024.38 1024.10 1023.80 1023.49 1023.20 1022.93 1022.71 1022.53 1022.40 1022.29 1022.17 1022.01 1021.80 1021.51 1021.14 1020.72
1024.78 1024.79 1024.83 1024.88 1024.92 1024.95 1024.95 1024.92 1024.87 1024.82 1024.80 1024.81 1024.88 1024.99 1025.15 1025.32 1025.49 1025.64 1025.75 1025.82 1025.85 1025.83 1025.79 1025.70 1025.59 1025.43 1025.22 1024.96 1024.66 1024.33 1023.99 1023.66 1023.36 1023.12 1022.94 1022.80 1022.68 1022.57 1022.41 1022.18 1021.86 1021.47 1021.00
1025.31 1025.36 1025.43 1025.51 1025.58 1025.64 1025.67 1025.68 1025.67 1025.66 1025.65 1025.67 1025.72 1025.79 1025.89 1025.99 1026.09 1026.18 1026.25 1026.29 1026.32 1026.33 1026.31 1026.27 1026.19 1026.06 1025.87 1025.61 1025.30 1024.93 1024.55 1024.18 1023.84 1023.57 1023.35 1023.18 1023.05 1022.91 1022.74 1022.49 1022.15 1021.72 1021.21
1025.73 1025.82 1025.91 1026.02 1026.12 1026.21 1026.29 1026.34 1026.39 1026.42 1026.45 1026.48 1026.53 1026.59 1026.65 1026.71 1026.76 1026.80 1026.83 1026.86 1026.89 1026.91 1026.93 1026.92 1026.88 1026.77 1026.59 1026.33 1026.00 1025.61 1025.19 1024.76 1024.37 1024.04 1023.77 1023.56 1023.38 1023.21 1023.00 1022.72 1022.34 1021.88 1021.33
1026.03 1026.16 1026.28 1026.42 1026.55 1026.68 1026.79 1026.90 1026.99 1027.07 1027.15 1027.23 1027.30 1027.37 1027.42 1027.46 1027.48 1027.50 1027.51 1027.52 1027.54 1027.57 1027.60 1027.62 1027.60 1027.51 1027.34 1027.08 1026.73 1026.31 1025.84 1025.37 1024.92 1024.52 1024.19 1023.91 1023.68 1023.46 1023.20 1022.88 1022.47 1021.97 1021.38
1026.25 1026.40 1026.56 1026.72 1026.88 1027.04 1027.19 1027.33 1027.47 1027.61 1027.74 1027.86 1027.98 1028.07 1028.15 1028.19 1028.21 1028.22 1028.21 1028.21 1028.23 1028.26 1028.29 1028.31 1028.30 1028.22 1028.05 1027.79 1027.43 1026.98 1026.48 1025.96 1025.45 1024.99 1024.59 1024.25 1023.95 1023.66 1023.35 1022.98 1022.53 1022.00 1021.38
1026.40 1026.58 1026.77 1026.95 1027.13 1027.31 1027.48 1027.66 1027.83 1028.01 1028.19 1028.36 1028.53 1028.66 1028.77 1028.84 1028.87 1028.88 1028.87 1028.86 1028.86 1028.87 1028.89 1028.91 1028.89 1028.81 1028.65 1028.39 1028.03 1027.57 1027.06 1026.50 1025.95 1025.44 1024.98 1024.57 1024.20 1023.86 1023.49 1023.08 1022.59 1022.02 1021.37
1026.51 1026.72 1026.94 1027.14 1027.33 1027.52 1027.70 1027.89 1028.07 1028.28 1028.49 1028.70 1028.90 1029.08 1029.23 1029.33 1029.39 1029.41 1029.40 1029.38 1029.36 1029.35 1029.35 1029.35 1029.32 1029.24 1029.08 1028.84 1028.49 1028.06 1027.54 1026.99 1026.42 1025.88 1025.37 1024.91 1024.49 1024.08 1023.66 1023.20 1022.67 1022.07 1021.40
1026.60 1026.84 1027.08 1027.30 1027.49 1027.67 1027.84 1028.02 1028.20 1028.41 1028.63 1028.87 1029.10 1029.32 1029.50 1029.63 1029.72 1029.75 1029.75 1029.72 1029.69 1029.66 1029.63 1029.61 1029.57 1029.50 1029.36 1029.14 1028.83 1028.43 1027.96 1027.43 1026.87 1026.32 1025.79 1025.29 1024.82 1024.36 1023.90 1023.39 1022.84 1022.21 1021.52
1026.66 1026.94 1027.19 1027.42 1027.61 1027.78 1027.93 1028.07 1028.23 1028.42 1028.64 1028.88 1029.13 1029.38 1029.59 1029.76 1029.87 1029.92 1029.92 1029.90 1029.85 1029.80 1029.76 1029.73 1029.69 1029.62 1029.52 1029.34 1029.09 1028.75 1028.33 1027.85 1027.33 1026.80 1026.26 1025.74 1025.24 1024.74 1024.23 1023.69 1023.10 1022.46 1021.75
1026.67 1026.97 1027.25 1027.48 1027.67 1027.81 1027.94 1028.06 1028.19 1028.35 1028.55 1028.79 1029.05 1029.31 1029.55 1029.74 1029.88 1029.96 1029.98 1029.95 1029.91 1029.85 1029.81 1029.77 1029.74 1029.70 1029.63 1029.51 1029.32 1029.05 1028.71 1028.29 1027.82 1027.31 1026.79 1026.26 1025.73 1025.20 1024.65 1024.08 1023.47 1022.80 1022.09
1026.57 1026.91 1027.21 1027.45 1027.64 1027.78 1027.88 1027.97 1028.08 1028.22 1028.41 1028.64 1028.91 1029.19 1029.45 1029.68 1029.85 1029.95 1030.00 1029.99 1029.96 1029.91 1029.86 1029.84 1029.82 1029.81 1029.78 1029.71 1029.58 1029.39 1029.11 1028.76 1028.34 1027.87 1027.35 1026.82 1026.27 1025.70 1025.13 1024.53 1023.89 1023.21 1022.49
1026.35 1026.72 1027.04 1027.30 1027.50 1027.64 1027.73 1027.82 1027.93 1028.06 1028.25 1028.49 1028.78 1029.08 1029.38 1029.64 1029.85 1029.99 1030.07 1030.09 1030.07 1030.04 1030.01 1030.00 1030.00 1030.01 1030.01 1029.98 1029.91 1029.77 1029.55 1029.25 1028.86 1028.41 1027.91 1027.36 1026.79 1026.20 1025.59 1024.96 1024.30 1023.61 1022.89
Thickness
5737 5737 5736 5736 5735 5735 5734 5734 5733 5732 5731 5730 5728 5727 5726 5726 5725 5724 5724 5724 5725 5724 5725 5726 5726 5727 5729 5730 5732 5733 5735 5736 5738 5739 5740 5741 5741 5742 5743 5744 5745 5745 5746
5736 5735 5734 5734 5733 5733 5733 5732 5731 5730 5728 5727 5726 5724 5724 5723 5722 5721 5721 5721 5721 5720 5721 5721 5722 5723 5725 5726 5728 5730 5731 5733 5735 5736 5737 5738 5738 5738 5739 5740 5740 5741 5742
5734 5733 5732 5732 5731 5731 5731 5730 5729 5728 5726 5724 5722 5721 5721 5719 5718 5718 5717 5717 5716 5716 5717 5717 5718 5719 5720 5722 5724 5726 5728 5730 5733 5734 5735 5735 5734 5734 5735 5736 5736 5737 5737
5732 5732 5731 5729 5729 5729 5729 5727 5725 5723 5722 5720 5718 5718 5717 5716 5715 5714 5713 5712 5712 5712 5712 5712 5713 5714 5715 5717 5719 5721 5724 5727 5730 5731 5731 5730 5730 5730 5730 5731 5732 5732 5733
5730 5729 5728 5727 5727 5726 5725 5725 5722 5720 5718 5716 5716 5714 5713 5712 5712 5711 5710 5709 5708 5707 5707 5707 5707 5708 5710 5712 5714 5716 5720 5723 5725 5726 5726 5727 5726 5725 5725 5726 5727 5727 5728
5727 5727 5725 5725 5724 5723 5722 5721 5719 5718 5716 5714 5714 5711 5709 5708 5708 5707 5706 5706 5705 5704 5703 5703 5703 5703 5704 5706 5708 5711 5715 5718 5719 5719 5721 5722 5720 5720 5720 5721 5722 5722 5722
5724 5723 5722 5722 5721 5720 5718 5718 5717 5714 5712 5712 5708 5704 5703 5704 5703 5702 5702 5701 5701 5700 5699 5698 5698 5698 5699 5701 5703 5705 5709 5711 5712 5713 5714 5715 5715 5715 5715 5715 5716 5717 5717
5721 5720 5720 5718 5718 5717 5716 5715 5714 5711 5709 5708 5704 5698 5693 5694 5696 5698 5697 5697 5696 5695 5695 5694 5694 5694 5694 5696 5697 5699 5702 5704 5706 5707 5707 5708 5708 5709 5709 5710 5710 5711 5711
5718 5717 5717 5716 5715 5714 5712 5711 5711 5708 5705 5705 5704 5699 5690 5685 5687 5690 5691 5691 5691 5691 5690 5690 5689 5689 5690 5690 5692 5693 5695 5697 5699 5700 5701 5701 5702 5702 5703 5704 5704 5704 5705
5714 5714 5714 5713 5712 5711 5710 5709 5708 5706 5704 5700 5700 5699 5696 5693 5686 5682 5684 5686 5687 5686 5686 5686 5685 5685 5685 5685 5686 5687 5688 5690 5692 5693 5694 5695 5695 5696 5696 5696 5697 5697 5698
5710 5711 5710 5710 5709 5707 5707 5706 5705 5704 5702 5699 5697 5696 5694 5691 5688 5682 5677 5679 5681 5681 5681 5681 5681 5681 5680 5680 5680 5681 5682 5683 5684 5685 5687 5688 5688 5689 5689 5689 5690 5690 5690
5706 5706 5706 5706 5705 5704 5703 5702 5701 5700 5699 5697 5695 5694 5691 5688 5684 5681 5676 5674 5674 5675 5677 5677 5677 5676 5676 5676 5675 5676 5676 5677 5677 5678 5679 5680 5680 5681 5681 5681 5682 5682 5682
5701 5702 5702 5702 5701 5701 5700 5699 5698 5697 5696 5694 5692 5690 5689 5687 5686 5682 5677 5672 5670 5671 5672 5672 5672 5672 5671 5671 5671 5671 5671 5671 5671 5671 5671 5672 5672 5672 5673 5673 5673 5673 5674
5699 5699 5699 5699 5698 5697 5697 5696 5695 5693 5692 5690 5689 5688 5686 5685 5684 5681 5677 5672 5667 5664 5665 5665 5667 5667 5667 5666 5666 5666 5666 5665 5665 5665 5665 5664 5664 5664 5664 5664 5664 5664 5665
5698 5697 5696 5695 5694 5694 5693 5692 5690 5689 5687 5686 5685 5684 5682 5681 5680 5679 5677 5674 5667 5659 5657 5659 5660 5662 5662 5662 5661 5660 5660 5659 5659 5658 5658 5657 5656 5656 5656 5656 5655 5655 5655
5695 5694 5693 5691 5690 5689 5689 5687 5686 5685 5683 5681 5680 5679 5678 5677 5676 5674 5673 5670 5667 5661 5654 5654 5654 5656 5657 5656 5655 5654 5653 5653 5652 5651 5651 5650 5649 5648 5648 5647 5647 5646 5646
5692 5691 5690 5688 5686 5685 5684 5683 5681 5680 5678 5677 5676 5674 5672 5671 5670 5669 5668 5665 5662 5659 5652 5649 5650 5651 5651 5650 5649 5648 5647 5646 5645 5644 5643 5642 5641 5640 5639 5638 5638 5637 5636
5689 5688 5686 5684 5682 5681 5680 5678 5676 5675 5673 5671 5670 5669 5667 5667 5664 5663 5661 5659 5656 5654 5650 5644 5643 5643 5643 5643 5642 5641 5640 5639 5638 5637 5636 5634 5633 5632 5630 5629 5628 5627 5627
5685 5684 5682 5680 5678 5677 5675 5674 5672 5670 5668 5666 5665 5663 5661 5660 5658 5656 5654 5652 5650 5649 5645 5640 5636 5636 5635 5635 5634 5633 5632 5631 5630 5628 5627 5626 5624 5623 5621 5620 5618 5617 5616
5681 5679 5677 5676 5674 5673 5671 5669 5668 5665 5663 5662 5660 5659 5657 5655 5653 5651 5648 5646 5643 5640 5637 5633 5629 5627 5626 5626 5624 5622 5621 5621 5620 5619 5618 5616 5614 5613 5611 5610 5608 5607 5606
5677 5675 5673 5671 5670 5668 5667 5665 5663 5660 5658 5656 5654 5653 5652 5651 5649 5647 5644 5640 5637 5633 5629 5625 5621 5618 5616 5615 5613 5612 5610 5610 5610 5608 5607 5605 5604 5602 5600 5598 5597 5595 5594
5671 5669 5668 5666 5664 5663 5662 5660 5658 5655 5653 5651 5648 5647 5646 5645 5643 5641 5639 5636 5633 5628 5622 5618 5613 5610 5607 5606 5605 5604 5600 5598 5597 5598 5595 5594 5593 5590 5589 5588 5586 5584 5583
5666 5664 5662 5660 5658 5657 5657 5655 5653 5650 5647 5645 5643 5641 5641 5638 5635 5633 5631 5629 5625 5622 5619 5614 5608 5604 5601 5600 5597 5594 5591 5587 5585 5586 5584 5583 5581 5578 5578 5576 5574 5573 5571
5661 5659 5656 5655 5654 5652 5651 5649 5647 5644 5641 5639 5637 5635 5633 5630 5629 5626 5623 5620 5616 5613 5611 5608 5603 5600 5597 5593 5590 5586 5582 5579 5577 5575 5572 5569 5569 5567 5567 5565 5562 5560 5558
5657 5654 5652 5650 5648 5646 5645 5643 5641 5637 5634 5632 5631 5629 5627 5625 5623 5620 5616 5611 5608 5605 5602 5599 5596 5592 5588 5585 5581 5576 5572 5567 5564 5563 5560 5556 5556 5555 5555 5553 5550 5547 5544
5652 5650 5647 5645 5644 5641 5640 5638 5636 5632 5628 5626 5624 5622 5621 5619 5616 5613 5608 5604 5599 5596 5593 5590 5586 5582 5578 5574 5570 5566 5561 5555 5551 5549 5549 5544 5542 5540 5540 5540 5537 5534 5531